Location: Cluj-Napoca
(46.7712°N, 23.6236°E)
Time: 01:08:45
(UTC+03:00)

N. Korean satellite - Pass Details

Date: 02 October 2021
Orbit: 450 x 494 km, 97.3° (Epoch: 28 October)

Event Time Altitude Azimuth Distance (km) Brightness Sun altitude
Rises 06:20:37 0° 19° (NNE) 2,554 10.6 -11.9°
Reaches altitude 10° 06:22:47 10° 27° (NNE) 1,676 9.8 -11.6°
Maximum altitude 06:26:12 40° 98° (E) 739 8.1 -11.0°
Drops below altitude 10° 06:29:37 10° 169° (S) 1,682 9.4 -10.4°
Sets 06:31:47 0° 177° (S) 2,563 10.2 -10.0°
